EW3937 Weather Reports


Display with metric or nautical units.
time (UTC)temp
F
wind
direction
speed
MPH
gust
MPH
rain 1hr
in
rain 24hr
in
rain mn
in
humidity
%
barometer
mb
20260504082003 40 0 0.0 0.0 0.00 0.00 0.00 87 1009.7
20260504081503 40 0 0.0 0.0 0.00 0.00 0.00 88 1009.7
20260504081003 40 0 0.0 0.0 0.00 0.00 0.00 87 1009.7
20260504080503 40 0 0.0 0.0 0.00 0.00 0.00 87 1009.7
20260504060218 44 0 0.0 0.0 0.00 0.00 0.00 78 1010.1
20260504050503 48 0 0.0 0.0 0.00 0.00 0.00 70 1010.4
20260504050003 48 0 0.0 0.0 0.00 0.00 0.00 69 1010.4
20260504045503 48 0 0.0 0.0 0.00 0.00 0.00 69 1010.4
20260504045003 48 0 0.0 0.0 0.00 0.00 0.00 68 1010.4
20260504044504 48 0 0.0 0.0 0.00 0.00 0.00 68 1010.4
20260504044217 48 0 0.0 0.0 0.00 0.00 0.00 68 1010.4
20260504043503 48 0 0.0 0.0 0.00 0.00 0.00 68 1010.4
20260504043003 49 0 0.0 0.0 0.00 0.00 0.00 67 1010.4
20260504042718 49 0 0.0 0.0 0.00 0.00 0.00 66 1010.4
20260504042003 50 0 0.0 0.0 0.00 0.00 0.00 63 1010.3
20260504041503 50 0 0.0 0.0 0.00 0.00 0.00 63 1010.4
20260504041003 51 0 0.0 1.0 0.00 0.00 0.00 62 1010.4
20260504040503 51 0 0.0 1.0 0.00 0.00 0.00 60 1010.3
20260504040003 52 0 0.0 1.0 0.00 0.00 0.00 60 1010.3
20260504035503 52 0 0.0 1.0 0.00 0.00 0.00 61 1010.3
20260504035003 52 0 0.0 1.0 0.00 0.00 0.00 60 1010.3
20260504034503 54 0 0.0 1.0 0.00 0.00 0.00 58 1010.3
20260504034003 55 0 0.0 1.0 0.00 0.00 0.00 55 1010.1
20260504033503 56 0 0.0 0.0 0.00 0.00 0.00 54 1010.2
20260504033003 56 0 0.0 0.0 0.00 0.00 0.00 53 1010.1
20260504032717 57 0 0.0 0.0 0.00 0.00 0.00 53 1010.1
20260504032216 58 0 0.0 0.0 0.00 0.00 0.00 50 1010.1
20260504031503 59 0 0.0 1.0 0.00 0.00 0.00 49 1010.1
20260504031003 60 0 0.0 1.0 0.00 0.00 0.00 48 1010.0
20260504030503 62 0 0.0 1.0 0.00 0.00 0.00 45 1010.1
20260504030003 63 147 0.0 1.0 0.00 0.00 0.00 43 1010.0
20260504025718 64 145 1.0 2.0 0.00 0.00 0.00 42 1010.0
20260504025003 67 193 1.0 2.0 0.00 0.00 0.00 40 1010.0
20260504024503 69 219 1.0 3.0 0.00 0.00 0.00 35 1010.0
20260504024003 69 216 1.0 3.0 0.00 0.00 0.00 35 1010.0
20260504023503 70 217 1.0 3.0 0.00 0.00 0.00 35 1010.0
20260504023003 71 220 0.0 3.0 0.00 0.00 0.00 35 1010.0
20260504022503 72 224 0.0 2.0 0.00 0.00 0.00 34 1010.1
20260504022003 73 233 1.0 3.0 0.00 0.00 0.00 33 1010.1
20260504021503 73 232 1.0 3.0 0.00 0.00 0.00 32 1010.1
20260504021003 74 239 1.0 3.0 0.00 0.00 0.00 30 1010.1
20260504020503 74 238 2.0 5.0 0.00 0.00 0.00 29 1010.2
20260504020003 75 231 1.0 5.0 0.00 0.00 0.00 30 1010.2
20260504015503 75 226 1.0 4.0 0.00 0.00 0.00 30 1010.2
20260504015003 76 231 1.0 5.0 0.00 0.00 0.00 30 1010.3
20260504014503 76 228 1.0 5.0 0.00 0.00 0.00 30 1010.3
20260504014003 76 227 1.0 3.0 0.00 0.00 0.00 30 1010.4
20260504013503 76 236 2.0 4.0 0.00 0.00 0.00 27 1010.4
20260504013003 76 228 3.0 6.0 0.00 0.00 0.00 28 1010.4
20260504012503 76 223 3.0 7.0 0.00 0.00 0.00 27 1010.4
20260504012003 76 229 3.0 9.0 0.00 0.00 0.00 28 1010.5
20260504011503 76 232 3.0 9.0 0.00 0.00 0.00 28 1010.5
20260504011003 76 223 3.0 6.0 0.00 0.00 0.00 29 1010.6
20260504010503 76 224 1.0 8.0 0.00 0.00 0.00 28 1010.7
20260504010003 77 238 1.0 8.0 0.00 0.00 0.00 28 1010.8
20260504005503 77 250 2.0 3.0 0.00 0.00 0.00 29 1010.8
20260504005003 77 224 3.0 8.0 0.00 0.00 0.00 29 1010.9
20260504004719 76 224 3.0 8.0 0.00 0.00 0.00 29 1010.9
20260504004003 76 229 2.0 8.0 0.00 0.00 0.00 28 1011.0
20260504003503 77 232 3.0 8.0 0.00 0.00 0.00 28 1011.0
20260504003003 76 225 3.0 10.0 0.00 0.00 0.00 27 1011.1
20260504002716 76 227 3.0 10.0 0.00 0.00 0.00 26 1011.1
20260504002003 76 235 3.0 8.0 0.00 0.00 0.00 27 1011.2
20260504001503 77 236 2.0 7.0 0.00 0.00 0.00 27 1011.2
20260504001003 77 236 3.0 5.0 0.00 0.00 0.00 28 1011.3
20260504000503 77 228 3.0 8.0 0.00 0.00 0.00 27 1011.3
20260504000219 77 226 2.0 9.0 0.00 0.00 0.00 26 1011.3
20260503235718 77 226 2.0 9.0 0.00 0.00 0.00 24 1011.3
20260503235003 77 241 2.0 6.0 0.00 0.00 0.00 25 1011.4
20260503234718 77 270 2.0 8.0 0.00 0.00 0.00 26 1011.4
20260503234217 76 327 2.0 8.0 0.00 0.00 0.00 26 1011.5
20260503233503 77 342 2.0 7.0 0.00 0.00 0.00 26 1011.6
20260503233003 77 342 2.0 5.0 0.00 0.00 0.00 26 1011.6
20260503232503 77 286 2.0 6.0 0.00 0.00 0.00 25 1011.7
20260503232003 76 248 2.0 7.0 0.00 0.00 0.00 27 1011.7
20260503231503 77 256 2.0 7.0 0.00 0.00 0.00 24 1011.8
20260503231003 77 276 2.0 7.0 0.00 0.00 0.00 24 1011.9
20260503230503 77 267 3.0 8.0 0.00 0.00 0.00 25 1011.9
20260503230003 77 243 3.0 9.0 0.00 0.00 0.00 26 1011.9
20260503225503 77 232 2.0 9.0 0.00 0.00 0.00 26 1012.0
20260503225003 77 243 2.0 8.0 0.00 0.00 0.00 25 1012.0
20260503224503 76 256 3.0 9.0 0.00 0.00 0.00 31 1012.1
20260503224003 76 241 3.0 9.0 0.00 0.00 0.00 31 1012.2
20260503223503 76 237 4.0 11.0 0.00 0.00 0.00 29 1012.3
20260503223003 76 231 3.0 11.0 0.00 0.00 0.00 31 1012.4
20260503222718 76 238 3.0 11.0 0.00 0.00 0.00 30 1012.4
20260503222003 77 282 3.0 9.0 0.00 0.00 0.00 33 1012.4
20260503221503 76 272 2.0 8.0 0.00 0.00 0.00 31 1012.4
20260503221003 77 266 2.0 6.0 0.00 0.00 0.00 31 1012.5
20260503220503 77 259 3.0 6.0 0.00 0.00 0.00 30 1012.6
20260503220003 77 253 5.0 14.0 0.00 0.00 0.00 32 1012.6
20260503215503 76 235 7.0 14.0 0.00 0.00 0.00 32 1012.7
20260503215003 76 226 8.0 15.0 0.00 0.00 0.00 29 1012.7
20260503214503 76 221 6.0 15.0 0.00 0.00 0.00 28 1012.7
20260503214003 76 224 4.0 15.0 0.00 0.00 0.00 25 1012.8
20260503213503 76 231 3.0 13.0 0.00 0.00 0.00 28 1012.9
20260503213218 77 235 2.0 13.0 0.00 0.00 0.00 27 1012.9
20260503212717 77 279 3.0 10.0 0.00 0.00 0.00 30 1013.0
20260503212003 77 235 4.0 12.0 0.00 0.00 0.00 29 1013.1
20260503211503 76 235 4.0 12.0 0.00 0.00 0.00 25 1013.1
20260503211003 76 243 4.0 9.0 0.00 0.00 0.00 27 1013.2
20260503210003 76 233 4.0 13.0 0.00 0.00 0.00 27 1013.2
20260503205503 76 233 4.0 13.0 0.00 0.00 0.00 25 1013.3
20260503205218 77 229 4.0 11.0 0.00 0.00 0.00 25 1013.3
20260503204503 77 236 3.0 11.0 0.00 0.00 0.00 26 1013.4
20260503204003 77 241 4.0 8.0 0.00 0.00 0.00 29 1013.4
20260503203503 77 232 5.0 13.0 0.00 0.00 0.00 30 1013.4
20260503203003 77 222 5.0 13.0 0.00 0.00 0.00 29 1013.4
20260503202717 76 220 5.0 13.0 0.00 0.00 0.00 29 1013.4
20260503202003 76 221 6.0 11.0 0.00 0.00 0.00 27 1013.5
20260503201503 76 223 6.0 11.0 0.00 0.00 0.00 28 1013.5
20260503201003 76 220 6.0 11.0 0.00 0.00 0.00 28 1013.6
20260503200503 76 221 6.0 11.0 0.00 0.00 0.00 27 1013.6
20260503200003 76 222 5.0 13.0 0.00 0.00 0.00 29 1013.6
20260503195503 76 222 3.0 13.0 0.00 0.00 0.00 28 1013.7
20260503195003 76 226 3.0 9.0 0.00 0.00 0.00 29 1013.8
20260503194503 76 230 3.0 9.0 0.00 0.00 0.00 29 1013.8
20260503194003 76 236 2.0 9.0 0.00 0.00 0.00 32 1013.9
20260503193503 76 232 2.0 9.0 0.00 0.00 0.00 31 1013.9
20260503193003 76 228 1.0 7.0 0.00 0.00 0.00 33 1014.0
20260503192503 76 231 0.0 7.0 0.00 0.00 0.00 30 1014.1
20260503192003 76 354 0.0 2.0 0.00 0.00 0.00 35 1014.1
20260503191503 76 335 1.0 2.0 0.00 0.00 0.00 35 1014.2
20260503191003 76 291 1.0 3.0 0.00 0.00 0.00 34 1014.2
20260503190503 76 298 1.0 4.0 0.00 0.00 0.00 36 1014.3
20260503190003 75 340 1.0 4.0 0.00 0.00 0.00 32 1014.3
20260503185716 76 341 1.0 4.0 0.00 0.00 0.00 31 1014.4
20260503185003 76 275 1.0 3.0 0.00 0.00 0.00 34 1014.4
20260503184503 76 324 1.0 3.0 0.00 0.00 0.00 35 1014.5
20260503184003 76 324 1.0 3.0 0.00 0.00 0.00 35 1014.6
20260503183503 76 304 0.0 4.0 0.00 0.00 0.00 36 1014.5
20260503183003 76 0 4.0 4.0 0.00 0.00 0.00 34 1014.6
20260503182503 76 277 0.0 1.0 0.00 0.00 0.00 34 1014.6
20260503182003 76 175 0.0 2.0 0.00 0.00 0.00 37 1014.7
20260503181718 76 167 0.0 3.0 0.00 0.00 0.00 37 1014.7
20260503181003 75 150 0.0 3.0 0.00 0.00 0.00 40 1014.7
20260503180503 74 114 0.0 2.0 0.00 0.00 0.00 40 1014.7
20260503180004 74 133 0.0 3.0 0.00 0.00 0.00 39 1014.7
20260503175718 75 0 0.0 3.0 0.00 0.00 0.00 41 1014.8
20260503175003 74 0 0.0 2.0 0.00 0.00 0.00 42 1014.9
20260503174503 74 0 0.0 2.0 0.00 0.00 0.00 42 1014.9
20260503174003 74 0 0.0 2.0 0.00 0.00 0.00 39 1015.0
20260503173718 74 0 0.0 2.0 0.00 0.00 0.00 40 1015.0
20260503173003 72 110 1.0 2.0 0.00 0.00 0.00 44 1015.0
20260503172504 71 131 1.0 3.0 0.00 0.00 0.00 47 1015.0
20260503172003 71 128 1.0 3.0 0.00 0.00 0.00 45 1015.1
20260503171503 70 85 1.0 3.0 0.00 0.00 0.00 43 1015.1
20260503171003 70 82 1.0 3.0 0.00 0.00 0.00 44 1015.1
20260503170503 70 96 1.0 4.0 0.00 0.00 0.00 46 1015.2
20260503170217 69 76 1.0 4.0 0.00 0.00 0.00 49 1015.2
20260503151003 58 94 1.0 3.0 0.00 0.00 0.00 69 1015.3
20260503150717 58 96 0.0 3.0 0.00 0.00 0.00 70 1015.3
20260503131003 40 0 0.0 0.0 0.00 0.00 0.00 91 1015.0
20260503130503 39 0 0.0 0.0 0.00 0.00 0.00 91 1015.0
20260503130217 39 0 0.0 0.0 0.00 0.00 0.00 91 1015.0
20260503110504 39 0 1.0 1.0 0.00 0.00 0.00 90 1015.1